SCP
0 0 0 0 0 0 -0 0 0 0 0 0 -0 0 -0 -0 -0 -0 -0 -0 -0 -0 -0 -0 0 -0 -0 -0 -0 -0 0 0 0 0 -0 -0 -0 -0 -0 -0 -0 -0 -0
0 0 0 0 0 0 0 0 0 0 -0 0 -0 -0 -0 -0 -0 -0 -0 -0 -0 -0 -0 -0 -0 0 0 -0 -0 -0 -0 0 -0 0 0 -0 0 0 0 0 0 -0 0
0 0 0 0 0 0 0 0 0 -0 -0 -0 -0 -0 -0 -0 -0 -0 -0 -0 -0 -0 -0 -0 -0 -0 0 0 0 0 -0 -0 -0 -0 0 0 0 0 0 0 0 0 0
0 0 0 0 0 0 0 0 0 0 -0 -0 -0 -0 -0 -0 -0 -0 -0 -0 -0 -0 -0 -0 -0 -0 -0 -0 -0 -0 -0 -0 0 0 0 0 0 0 0 0 0 0 0
0 0 0 0 0 0 0 0 0 0 -0 -0 -0 -0 -0 -0 -0 -0 -0 -0 -0 -0 -0 -0 -0 -0 0 -0 -0 -0 -0 -0 -0 0 0 0 0 0 0 0 0 0 0
0 0 0 0 0 0 0 0 0 0 -0 -0 -0 -0 -0 -0 -0 -0 -0 -0 -0 -0 -0 0 0 0 0 0 -0 -0 -0 -0 -0 0 0 0 0 0 0 0 0 0 0
0 0 0 0 0 0 0 0 0 0 -0 -0 -0 -0 -0 -0 -0 -0 -0 -0 -0 0 0 0 0 0 0 -0 -0 -0 -0 -0 -0 -0 0 0 0 0 0 0 0 0 0
0 0 0 0 0 0 0 0 0 0 0 0 0 -0 0 -0 -0 -0 -0 -0 0 0 0 0 0 0 0 -0 -0 -0 -0 -0 -0 -0 0 0 0 0 0 0 0 0 0
0 0 0 0 0 0 0 0 0 0 0 0 0 0 0 0 0 0 0 0 0 0 0 0 0 -0 -0 -0 -0 -0 -0 -0 -0 0 0 0 0 0 0 0 0 0 0
0 0 0 0 0 0 0 0 0 0 0 0 0 0 0 0 0 0 0 0 0 0 0 0 -0 -0 -0 -0 -0 -0 -0 -0 0 0 0 0 0 0 0 0 0 0 0
0 0 0 0 0 0 0 0 0 0 0 0 0 0 0 0 0 0 0 0 -0 0 0 -0 -0 -0 -0 -0 -0 -0 -0 0 0 0 0 0 0 0 0 0 0 0 0
0 0 0 0 0 0 0 0 0 0 0 0 0 0 0 0 0 0 0 -0 -0 0 0 0 -0 -0 -0 0 0 0 0 0 0 0 0 0 0 0 0 0 0 0 0
0 0 0 0 0 0 0 0 0 0 0 0 0 0 0 0 0 0 0 0 0 0 0 0 0 0 0 0 0 0 0 0 0 0 0 0 0 0 0 0 0 0 0
0 0 0 0 0 0 0 0 0 0 0 0 0 0 0 0 0 0 0 0 0 0 0 0 0 0 0 0 0 0 0 0 0 0 0 0 0 0 0 0 0 0 0
0 0 0 0 0 0 0 0 0 0 0 0 0 0 0 0 0 0 0 0 0 0 0 0 0 0 0 0 0 0 0 0 0 0 0 0 0 0 0 0 0 0 0
0 0 0 0 0 0 0 0 0 0 0 0 0 0 0 0 0 0 0 0 0 0 0 0 0 0 0 0 0 0 0 0 0 0 0 0 0 0 0 0 0 0 0
0 0 0 0 0 0 0 0 0 0 0 0 0 0 0 0 0 0 0 0 0 0 0 0 0 0 0 0 0 0 0 0 0 0 0 0 0 0 0 0 0 0 0
0 0 0 0 0 0 0 0 0 0 0 0 0 0 0 0 0 0 0 0 0 0 0 0 0 0 0 0 0 0 0 0 0 0 0 0 0 0 0 0 0 0 0
0 0 0 0 0 0 0 0 0 0 0 0 0 0 0 0 0 0 0 0 0 0 0 0 0 0 0 0 0 0 0 0 0 0 0 0 0 0 0 0 0 0 0
0 0 0 0 0 0 0 0 0 0 0 0 0 0 0 0 0 0 0 0 0 0 0 0 0 0 0 0 0 0 0 0 0 0 0 0 0 0 0 0 0 0 0
0 0 0 0 0 0 0 0 0 0 0 0 0 0 0 0 0 0 0 0 0 0 0 0 0 0 0 0 0 0 0 0 0 0 0 0 0 0 0 0 0 0 0
0 0 0 0 0 0 0 0 0 0 0 0 0 0 0 0 0 0 0 0 0 0 0 0 0 0 0 0 0 0 0 0 0 0 0 0 0 0 0 0 0 0 0
0 0 0 0 0 0 0 0 0 0 0 0 0 0 0 0 0 0 0 0 0 0 0 0 0 0 0 0 0 0 0 0 0 0 0 0 0 0 0 0 0 0 0
0 0 0 0 0 0 0 0 0 0 0 0 0 0 0 0 0 0 0 0 0 0 0 0 0 0 0 0 0 0 0 0 0 0 0 0 0 0 0 0 0 0 0
0 0 0 0 0 0 0 0 0 0 0 0 0 0 0 0 0 0 0 0 0 0 0 0 0 0 0 0 0 0 0 0 0 0 0 0 0 0 0 0 0 0 0
0 0 0 0 0 0 0 0 0 0 0 0 0 0 0 0 0 0 0 0 0 0 0 0 0 0 0 0 0 0 0 0 0 0 0 0 0 0 0 0 0 0 0
Wind_Speed_500mb
49 46 51 50 44 38 36 38 36 30 31 28 24 23 20 17 16 15 12 10 16 25 17 25 24 23 21 19 19 21 22 20 19 22 26 28 24 20 16 13 10 13 13
53 49 49 50 44 40 42 40 32 30 26 23 22 17 14 13 14 16 16 16 19 23 21 26 28 27 24 24 22 21 20 19 19 22 23 24 23 20 18 16 14 11 9
52 49 49 48 44 43 46 39 33 31 23 20 15 13 14 16 17 19 20 19 19 20 20 22 24 24 23 21 20 18 16 14 13 16 17 20 20 19 18 18 17 15 14
50 52 49 47 46 48 46 41 35 28 21 15 13 15 17 18 20 20 20 19 20 20 19 19 19 19 18 17 16 15 12 11 10 11 15 18 16 18 18 18 17 16 15
51 51 50 50 51 49 46 42 35 28 20 16 16 17 18 19 21 20 20 19 18 18 16 15 14 14 13 12 12 10 9 8 10 9 10 12 15 16 19 20 18 17 17
54 54 52 54 52 48 45 41 34 26 21 18 17 17 16 19 19 19 18 17 15 14 13 12 10 10 10 9 9 9 9 9 10 11 13 13 15 15 17 20 21 20 19
59 57 55 54 51 47 40 36 31 25 21 20 18 16 15 19 20 17 16 14 12 9 8 7 7 8 8 9 9 9 9 9 10 12 11 14 14 15 19 22 21 21 21
58 58 55 48 47 45 39 34 28 24 21 19 18 17 16 15 15 17 14 10 6 5 4 4 4 6 7 8 9 9 10 11 11 9 12 13 12 15 21 23 23 23 23
57 58 56 50 46 41 38 33 27 23 20 20 18 17 17 15 13 12 11 8 5 3 1 2 4 6 7 8 10 11 13 13 10 12 14 14 14 16 23 26 27 26 25
56 57 58 53 50 45 41 35 28 24 21 19 19 18 16 14 11 9 7 6 4 2 2 2 3 5 7 10 11 11 11 11 11 13 14 14 15 17 23 28 29 27 26
53 56 59 57 52 45 38 33 29 25 20 20 19 18 17 14 12 9 9 8 6 4 3 4 5 7 8 9 8 11 12 14 15 17 16 17 17 19 24 28 33 28 23
59 54 58 55 52 46 40 34 29 26 21 18 20 18 17 15 15 12 11 8 6 8 8 8 8 7 7 8 11 14 16 18 20 20 21 21 23 24 24 23 29 30 29
59 54 60 57 51 47 43 37 33 30 26 21 21 19 18 19 18 17 15 11 12 11 9 9 10 10 10 11 14 16 19 21 23 23 22 22 25 25 25 25 24 30 33
58 53 60 58 54 49 44 41 37 35 30 26 22 22 22 20 18 16 14 11 12 12 11 11 10 12 11 13 17 20 21 25 29 28 23 23 23 24 21 25 23 27 32
57 52 56 55 51 48 47 42 39 36 32 27 26 23 21 20 19 18 15 16 17 16 14 14 14 13 14 17 21 23 22 23 26 26 24 24 24 25 24 29 24 27 31
56 53 54 50 46 44 42 36 30 27 23 29 24 20 19 20 19 20 21 22 20 19 17 19 18 18 20 23 24 23 21 26 26 23 23 21 21 27 25 24 26 28 29
57 49 54 50 45 45 39 37 34 27 26 26 23 19 21 23 23 24 26 26 23 23 23 25 22 23 25 27 27 24 25 26 27 28 25 24 22 24 19 22 26 27 30
55 52 48 49 48 48 49 42 40 35 31 29 26 23 27 28 29 30 31 30 28 29 29 30 27 28 31 29 26 24 28 32 34 31 31 27 21 26 23 21 22 27 26
55 48 46 46 45 46 50 46 41 40 38 33 31 32 32 32 31 31 31 29 30 33 32 32 32 32 29 31 32 29 31 36 34 31 27 24 26 23 13 15 24 22 21
60 51 42 41 39 37 40 40 39 41 41 40 40 39 37 35 34 33 31 29 31 34 35 35 35 34 35 34 33 38 37 34 26 21 24 17 21 13 13 21 20 19 22
56 53 45 42 40 39 41 43 42 43 40 41 42 43 40 38 35 33 33 31 30 34 35 36 35 38 39 36 39 39 39 22 25 19 12 8 9 10 16 21 20 21 23
54 53 45 44 41 41 40 38 37 36 40 40 37 37 37 36 37 38 40 39 37 36 37 38 36 42 43 39 37 37 21 27 4 9 9 10 7 13 15 16 19 18 24
52 52 48 44 36 35 34 32 33 35 40 37 41 41 41 38 36 37 40 40 41 42 43 39 40 44 44 42 38 34 11 11 21 14 11 12 14 17 18 18 20 21 24
48 50 50 48 44 41 39 38 38 41 43 43 38 34 29 32 34 37 38 41 42 43 44 44 43 45 46 41 37 43 33 37 17 11 14 19 19 19 20 22 23 24 24
23 30 33 34 36 36 37 42 40 43 43 42 42 40 33 31 33 37 37 32 35 37 39 40 44 44 41 39 37 32 33 32 31 33 24 21 21 21 22 24 23 23 25
17 20 30 33 36 38 40 42 43 47 47 48 45 43 36 35 37 39 41 41 45 42 41 39 41 35 38 36 33 32 32 27 30 31 33 26 25 24 23 22 23 26 28
Wind_Direction_500mb
178 178 171 172 173 162 151 151 150 145 146 149 151 160 167 173 176 178 169 136 114 112 108 98 95 114 112 103 93 88 85 82 82 72 65 63 55 49 49 51 50 52 52
167 177 172 178 174 164 154 154 155 158 156 160 169 171 170 169 159 149 139 123 115 123 95 91 91 99 101 96 92 89 84 73 66 69 66 59 55 51 50 51 47 37 20
168 171 171 176 172 164 159 159 161 162 157 165 166 168 162 147 141 133 127 120 115 114 103 94 93 92 92 91 88 89 86 77 56 44 52 54 41 38 33 31 32 29 24
170 168 169 170 166 162 162 164 169 167 173 173 167 156 144 142 134 129 127 123 118 113 107 101 95 91 90 89 86 80 74 63 51 50 33 26 13 18 21 12 5 5 5
174 168 166 165 162 162 166 166 172 180 185 177 162 145 147 147 140 137 130 124 118 113 108 103 98 93 86 78 69 65 55 36 15 20 8 18 2 357 4 0 356 350 344
174 169 166 165 165 166 170 173 179 183 180 172 159 152 158 163 152 137 133 128 121 115 111 104 95 83 70 60 52 39 31 16 359 352 351 358 5 351 356 355 350 346 344
174 169 168 168 170 172 176 176 175 179 177 172 164 159 155 157 152 135 136 133 127 120 115 100 77 60 49 39 30 23 11 2 350 337 344 355 12 3 356 352 347 343 339
174 170 171 169 174 177 176 176 178 181 178 176 172 170 170 151 149 140 142 143 141 120 99 71 43 30 30 29 22 14 3 353 350 0 346 356 3 1 355 347 339 335 334
178 173 175 173 176 179 179 182 185 186 186 183 182 179 179 178 173 162 162 164 170 169 167 11 6 12 16 12 2 4 3 1 8 359 346 344 348 353 346 341 335 332 327
181 179 180 179 180 183 186 190 192 194 196 196 190 188 189 186 183 181 189 200 219 228 268 316 346 355 359 351 358 2 3 360 355 347 343 342 341 341 336 334 332 329 321
184 186 185 185 185 188 190 192 194 198 201 199 199 196 196 195 193 195 203 217 238 264 289 314 334 342 342 337 347 348 346 338 335 333 330 325 326 327 327 329 330 330 321
184 188 191 190 191 193 197 201 201 201 202 203 200 200 197 201 204 206 208 222 265 288 293 305 319 323 328 326 328 329 329 327 323 322 321 313 314 319 321 322 324 332 330
188 191 195 197 199 201 205 208 207 206 207 204 201 200 205 214 214 222 221 242 271 280 294 298 307 305 309 318 323 325 325 319 316 317 316 319 319 317 319 334 320 323 322
193 197 192 198 203 207 211 214 214 212 213 214 213 211 215 226 232 239 246 270 277 275 280 287 286 290 302 311 317 315 317 337 343 335 328 316 320 320 329 326 318 308 313
196 196 196 198 205 207 211 214 215 216 220 217 216 218 222 233 248 261 268 272 269 265 273 279 279 285 296 302 310 313 329 332 334 330 323 312 311 310 321 317 306 301 316
202 203 201 203 204 205 205 207 212 212 217 220 220 226 238 245 252 262 264 263 263 269 278 282 282 284 289 295 295 312 331 332 327 320 322 323 322 306 295 303 291 304 310
210 210 212 207 209 214 207 209 218 225 225 225 230 244 257 260 264 265 263 265 269 271 275 275 277 280 287 293 309 323 326 327 314 311 306 310 302 313 298 290 288 300 307
216 214 216 218 217 219 216 214 219 226 232 235 239 247 256 261 264 265 265 267 267 266 268 270 272 276 281 284 299 311 316 316 309 305 300 301 295 290 280 281 293 304 302
214 217 212 216 217 220 219 223 226 231 238 244 248 251 255 260 263 264 265 267 264 263 263 265 268 273 280 282 292 299 309 312 313 305 295 286 293 290 274 296 309 304 308
213 221 223 219 221 220 218 217 223 228 237 245 250 255 258 257 257 260 262 264 263 263 263 264 268 265 276 280 288 295 305 311 305 307 287 279 282 278 290 312 309 305 314
212 216 222 224 225 224 222 219 223 230 237 245 249 250 251 255 252 258 261 262 262 264 267 267 268 267 273 279 284 286 301 321 313 311 288 272 276 291 304 305 302 306 324
205 216 225 229 229 231 232 236 238 243 247 253 254 256 258 258 258 261 264 265 265 269 269 268 263 268 270 273 274 290 318 323 315 342 304 283 257 280 288 286 301 309 323
212 218 221 220 222 230 235 236 239 240 244 247 250 255 258 262 262 261 263 264 266 266 267 268 263 266 273 271 273 275 284 258 296 296 229 222 266 270 272 282 302 305 314
219 219 222 222 224 229 231 225 229 237 243 247 255 256 260 255 254 254 262 264 265 266 267 269 268 268 266 263 275 270 268 264 272 267 231 229 258 244 272 291 291 295 304
212 218 228 234 236 238 243 242 243 244 247 250 252 255 257 251 255 258 256 258 263 262 264 266 270 271 270 275 275 271 270 264 265 251 258 249 232 233 264 271 271 289 297
221 231 236 245 245 250 248 242 239 241 244 248 250 256 249 251 251 252 256 256 265 259 261 267 265 269 266 267 260 264 260 266 270 264 251 252 231 247 253 245 265 275 282
Wind_Speed_850mb
49 46 51 50 44 38 36 38 36 30 31 28 24 23 20 17 16 15 12 10 16 25 17 25 24 23 21 19 19 21 22 20 19 22 26 28 24 20 16 13 10 13 13
53 49 49 50 44 40 42 40 32 30 26 23 22 17 14 13 14 16 16 16 19 23 21 26 28 27 24 24 22 21 20 19 19 22 23 24 23 20 18 16 14 11 9
52 49 49 48 44 43 46 39 33 31 23 20 15 13 14 16 17 19 20 19 19 20 20 22 24 24 23 21 20 18 16 14 13 16 17 20 20 19 18 18 17 15 14
50 52 49 47 46 48 46 41 35 28 21 15 13 15 17 18 20 20 20 19 20 20 19 19 19 19 18 17 16 15 12 11 10 11 15 18 16 18 18 18 17 16 15
51 51 50 50 51 49 46 42 35 28 20 16 16 17 18 19 21 20 20 19 18 18 16 15 14 14 13 12 12 10 9 8 10 9 10 12 15 16 19 20 18 17 17
54 54 52 54 52 48 45 41 34 26 21 18 17 17 16 19 19 19 18 17 15 14 13 12 10 10 10 9 9 9 9 9 10 11 13 13 15 15 17 20 21 20 19
59 57 55 54 51 47 40 36 31 25 21 20 18 16 15 19 20 17 16 14 12 9 8 7 7 8 8 9 9 9 9 9 10 12 11 14 14 15 19 22 21 21 21
58 58 55 48 47 45 39 34 28 24 21 19 18 17 16 15 15 17 14 10 6 5 4 4 4 6 7 8 9 9 10 11 11 9 12 13 12 15 21 23 23 23 23
57 58 56 50 46 41 38 33 27 23 20 20 18 17 17 15 13 12 11 8 5 3 1 2 4 6 7 8 10 11 13 13 10 12 14 14 14 16 23 26 27 26 25
56 57 58 53 50 45 41 35 28 24 21 19 19 18 16 14 11 9 7 6 4 2 2 2 3 5 7 10 11 11 11 11 11 13 14 14 15 17 23 28 29 27 26
53 56 59 57 52 45 38 33 29 25 20 20 19 18 17 14 12 9 9 8 6 4 3 4 5 7 8 9 8 11 12 14 15 17 16 17 17 19 24 28 33 28 23
59 54 58 55 52 46 40 34 29 26 21 18 20 18 17 15 15 12 11 8 6 8 8 8 8 7 7 8 11 14 16 18 20 20 21 21 23 24 24 23 29 30 29
59 54 60 57 51 47 43 37 33 30 26 21 21 19 18 19 18 17 15 11 12 11 9 9 10 10 10 11 14 16 19 21 23 23 22 22 25 25 25 25 24 30 33
58 53 60 58 54 49 44 41 37 35 30 26 22 22 22 20 18 16 14 11 12 12 11 11 10 12 11 13 17 20 21 25 29 28 23 23 23 24 21 25 23 27 32
57 52 56 55 51 48 47 42 39 36 32 27 26 23 21 20 19 18 15 16 17 16 14 14 14 13 14 17 21 23 22 23 26 26 24 24 24 25 24 29 24 27 31
56 53 54 50 46 44 42 36 30 27 23 29 24 20 19 20 19 20 21 22 20 19 17 19 18 18 20 23 24 23 21 26 26 23 23 21 21 27 25 24 26 28 29
57 49 54 50 45 45 39 37 34 27 26 26 23 19 21 23 23 24 26 26 23 23 23 25 22 23 25 27 27 24 25 26 27 28 25 24 22 24 19 22 26 27 30
55 52 48 49 48 48 49 42 40 35 31 29 26 23 27 28 29 30 31 30 28 29 29 30 27 28 31 29 26 24 28 32 34 31 31 27 21 26 23 21 22 27 26
55 48 46 46 45 46 50 46 41 40 38 33 31 32 32 32 31 31 31 29 30 33 32 32 32 32 29 31 32 29 31 36 34 31 27 24 26 23 13 15 24 22 21
60 51 42 41 39 37 40 40 39 41 41 40 40 39 37 35 34 33 31 29 31 34 35 35 35 34 35 34 33 38 37 34 26 21 24 17 21 13 13 21 20 19 22
56 53 45 42 40 39 41 43 42 43 40 41 42 43 40 38 35 33 33 31 30 34 35 36 35 38 39 36 39 39 39 22 25 19 12 8 9 10 16 21 20 21 23
54 53 45 44 41 41 40 38 37 36 40 40 37 37 37 36 37 38 40 39 37 36 37 38 36 42 43 39 37 37 21 27 4 9 9 10 7 13 15 16 19 18 24
52 52 48 44 36 35 34 32 33 35 40 37 41 41 41 38 36 37 40 40 41 42 43 39 40 44 44 42 38 34 11 11 21 14 11 12 14 17 18 18 20 21 24
48 50 50 48 44 41 39 38 38 41 43 43 38 34 29 32 34 37 38 41 42 43 44 44 43 45 46 41 37 43 33 37 17 11 14 19 19 19 20 22 23 24 24
23 30 33 34 36 36 37 42 40 43 43 42 42 40 33 31 33 37 37 32 35 37 39 40 44 44 41 39 37 32 33 32 31 33 24 21 21 21 22 24 23 23 25
17 20 30 33 36 38 40 42 43 47 47 48 45 43 36 35 37 39 41 41 45 42 41 39 41 35 38 36 33 32 32 27 30 31 33 26 25 24 23 22 23 26 28
Wind_Direction_850mb
178 178 171 172 173 162 151 151 150 145 146 149 151 160 167 173 176 178 169 136 114 112 108 98 95 114 112 103 93 88 85 82 82 72 65 63 55 49 49 51 50 52 52
167 177 172 178 174 164 154 154 155 158 156 160 169 171 170 169 159 149 139 123 115 123 95 91 91 99 101 96 92 89 84 73 66 69 66 59 55 51 50 51 47 37 20
168 171 171 176 172 164 159 159 161 162 157 165 166 168 162 147 141 133 127 120 115 114 103 94 93 92 92 91 88 89 86 77 56 44 52 54 41 38 33 31 32 29 24
170 168 169 170 166 162 162 164 169 167 173 173 167 156 144 142 134 129 127 123 118 113 107 101 95 91 90 89 86 80 74 63 51 50 33 26 13 18 21 12 5 5 5
174 168 166 165 162 162 166 166 172 180 185 177 162 145 147 147 140 137 130 124 118 113 108 103 98 93 86 78 69 65 55 36 15 20 8 18 2 357 4 0 356 350 344
174 169 166 165 165 166 170 173 179 183 180 172 159 152 158 163 152 137 133 128 121 115 111 104 95 83 70 60 52 39 31 16 359 352 351 358 5 351 356 355 350 346 344
174 169 168 168 170 172 176 176 175 179 177 172 164 159 155 157 152 135 136 133 127 120 115 100 77 60 49 39 30 23 11 2 350 337 344 355 12 3 356 352 347 343 339
174 170 171 169 174 177 176 176 178 181 178 176 172 170 170 151 149 140 142 143 141 120 99 71 43 30 30 29 22 14 3 353 350 0 346 356 3 1 355 347 339 335 334
178 173 175 173 176 179 179 182 185 186 186 183 182 179 179 178 173 162 162 164 170 169 167 11 6 12 16 12 2 4 3 1 8 359 346 344 348 353 346 341 335 332 327
181 179 180 179 180 183 186 190 192 194 196 196 190 188 189 186 183 181 189 200 219 228 268 316 346 355 359 351 358 2 3 360 355 347 343 342 341 341 336 334 332 329 321
184 186 185 185 185 188 190 192 194 198 201 199 199 196 196 195 193 195 203 217 238 264 289 314 334 342 342 337 347 348 346 338 335 333 330 325 326 327 327 329 330 330 321
184 188 191 190 191 193 197 201 201 201 202 203 200 200 197 201 204 206 208 222 265 288 293 305 319 323 328 326 328 329 329 327 323 322 321 313 314 319 321 322 324 332 330
188 191 195 197 199 201 205 208 207 206 207 204 201 200 205 214 214 222 221 242 271 280 294 298 307 305 309 318 323 325 325 319 316 317 316 319 319 317 319 334 320 323 322
193 197 192 198 203 207 211 214 214 212 213 214 213 211 215 226 232 239 246 270 277 275 280 287 286 290 302 311 317 315 317 337 343 335 328 316 320 320 329 326 318 308 313
196 196 196 198 205 207 211 214 215 216 220 217 216 218 222 233 248 261 268 272 269 265 273 279 279 285 296 302 310 313 329 332 334 330 323 312 311 310 321 317 306 301 316
202 203 201 203 204 205 205 207 212 212 217 220 220 226 238 245 252 262 264 263 263 269 278 282 282 284 289 295 295 312 331 332 327 320 322 323 322 306 295 303 291 304 310
210 210 212 207 209 214 207 209 218 225 225 225 230 244 257 260 264 265 263 265 269 271 275 275 277 280 287 293 309 323 326 327 314 311 306 310 302 313 298 290 288 300 307
216 214 216 218 217 219 216 214 219 226 232 235 239 247 256 261 264 265 265 267 267 266 268 270 272 276 281 284 299 311 316 316 309 305 300 301 295 290 280 281 293 304 302
214 217 212 216 217 220 219 223 226 231 238 244 248 251 255 260 263 264 265 267 264 263 263 265 268 273 280 282 292 299 309 312 313 305 295 286 293 290 274 296 309 304 308
213 221 223 219 221 220 218 217 223 228 237 245 250 255 258 257 257 260 262 264 263 263 263 264 268 265 276 280 288 295 305 311 305 307 287 279 282 278 290 312 309 305 314
212 216 222 224 225 224 222 219 223 230 237 245 249 250 251 255 252 258 261 262 262 264 267 267 268 267 273 279 284 286 301 321 313 311 288 272 276 291 304 305 302 306 324
205 216 225 229 229 231 232 236 238 243 247 253 254 256 258 258 258 261 264 265 265 269 269 268 263 268 270 273 274 290 318 323 315 342 304 283 257 280 288 286 301 309 323
212 218 221 220 222 230 235 236 239 240 244 247 250 255 258 262 262 261 263 264 266 266 267 268 263 266 273 271 273 275 284 258 296 296 229 222 266 270 272 282 302 305 314
219 219 222 222 224 229 231 225 229 237 243 247 255 256 260 255 254 254 262 264 265 266 267 269 268 268 266 263 275 270 268 264 272 267 231 229 258 244 272 291 291 295 304
212 218 228 234 236 238 243 242 243 244 247 250 252 255 257 251 255 258 256 258 263 262 264 266 270 271 270 275 275 271 270 264 265 251 258 249 232 233 264 271 271 289 297
221 231 236 245 245 250 248 242 239 241 244 248 250 256 249 251 251 252 256 256 265 259 261 267 265 269 266 267 260 264 260 266 270 264 251 252 231 247 253 245 265 275 282